Change the Weather History Date:

Monday, December 16, 2013

  Actual Average Record
Temperature  
Mean Temperature 14 °F -  
Max Temperature 26 °F 35 °F 53 °F (2008)
Min Temperature 1 °F 18 °F -2 °F (1951)
Degree Days  
Heating Degree Days 50    
Moisture  
Dew Point 6 °F    
Average Humidity 71    
Maximum Humidity 100    
Minimum Humidity 40    
Precipitation  
Precipitation 0.05 in - - ()
Sea Level Pressure  
Sea Level Pressure 29.86 in    
Wind  
Wind Speed 4 mph (WNW)    
Max Wind Speed 14 mph    
Max Gust Speed 29 mph    
Visibility 10 miles    
Events      
Averages and records for this station are not official NWS values.
T = Trace of Precipitation, MM = Missing Value Source: NWS Daily Summary

Daily Weather History Graph

Daily Weather History Graph

Search for Another Location

Airport or City:

Trip Planner

Search our weather history database for the weather conditions in past years. The results will help you decide how hot, cold, wet, or windy it might be!

Date:

Astronomy

Dec. 16, 2013 Rise Set
Actual Time 7:03 AM EST 3:54 PM EST
Civil Twilight 6:30 AM EST 4:28 PM EST
Nautical Twilight 5:53 AM EST 5:04 PM EST
Astronomical Twilight 5:18 AM EST 5:40 PM EST
Moon 3:44 PM EST (12/16) 6:06 AM EST (12/16)
Length of Visible Light 9h 57m
Length of Day
8h 51m
Full, 100% of the Moon is Illuminated
Dec 16
Full
Dec 17
Full
Dec 25
Last Quarter
Jan 1
New
Jan 7
First Quarter

Hourly Weather History & Observations

Time (EST) Temp. Windchill Dew Point Humidity Pressure Visibility Wind Dir Wind Speed Gust Speed Precip Events Conditions
12:15 AM 15.8 °F - 12.2 °F 86% 29.63 in 10.0 mi Calm Calm - N/A   Overcast
12:35 AM 15.8 °F - 12.2 °F 86% 29.63 in 10.0 mi Calm Calm - N/A   Overcast
12:55 AM 15.8 °F - 12.2 °F 86% 29.63 in 10.0 mi Calm Calm - N/A   Mostly Cloudy
1:15 AM 14.0 °F - 12.2 °F 93% 29.64 in 10.0 mi Calm Calm - N/A   Mostly Cloudy
1:35 AM 15.8 °F 10.2 °F 14.0 °F 93% 29.65 in 10.0 mi West 3.5 mph - N/A   Overcast
1:55 AM 15.8 °F - 14.0 °F 93% 29.66 in 10.0 mi Calm Calm - N/A   Mostly Cloudy
2:15 AM 15.8 °F 8.6 °F 12.2 °F 86% 29.66 in 10.0 mi West 4.6 mph - N/A   Partly Cloudy
2:35 AM 15.8 °F 8.6 °F 12.2 °F 86% 29.66 in 10.0 mi West 4.6 mph - N/A   Clear
2:55 AM 15.8 °F 8.6 °F 14.0 °F 93% 29.67 in 10.0 mi West 4.6 mph - N/A   Clear
3:15 AM 15.8 °F - 12.2 °F 86% 29.67 in 10.0 mi Calm Calm - N/A   Clear
3:35 AM 12.2 °F - 10.4 °F 92% 29.69 in 10.0 mi Calm Calm - N/A   Clear
3:55 AM 12.2 °F 4.3 °F 10.4 °F 92% 29.69 in 10.0 mi West 4.6 mph - N/A   Clear
4:15 AM 12.2 °F 2.9 °F 12.2 °F 100% 29.69 in 10.0 mi WNW 5.8 mph - N/A   Clear
4:35 AM 12.2 °F 6.1 °F 12.2 °F 100% 29.70 in 10.0 mi WNW 3.5 mph - N/A   Clear
4:55 AM 12.2 °F - 10.4 °F 92% 29.70 in 10.0 mi Calm Calm - N/A   Clear
5:15 AM 12.2 °F - 10.4 °F 92% 29.70 in 10.0 mi Calm Calm - N/A   Clear
5:35 AM 12.2 °F 6.1 °F 10.4 °F 92% 29.71 in 10.0 mi WNW 3.5 mph - N/A   Clear
5:55 AM 12.2 °F 4.3 °F 10.4 °F 92% 29.73 in 10.0 mi WNW 4.6 mph - N/A   Clear
6:15 AM 12.2 °F 6.1 °F 10.4 °F 92% 29.73 in 10.0 mi West 3.5 mph - N/A   Partly Cloudy
6:35 AM 10.4 °F 2.2 °F 10.4 °F 100% 29.74 in 10.0 mi West 4.6 mph - N/A   Scattered Clouds
6:55 AM 12.2 °F - 10.4 °F 92% 29.74 in 10.0 mi Calm Calm - N/A   Partly Cloudy
7:15 AM 10.4 °F 4.0 °F 10.4 °F 100% 29.75 in 10.0 mi WSW 3.5 mph - N/A   Clear
7:35 AM 12.2 °F - 10.4 °F 92% 29.76 in 10.0 mi Calm Calm - N/A   Clear
7:55 AM 12.2 °F - 10.4 °F 92% 29.77 in 10.0 mi Calm Calm - N/A   Clear
8:15 AM 14.0 °F - 10.4 °F 86% 29.77 in 10.0 mi Calm Calm - N/A   Clear
8:35 AM 15.8 °F - 12.2 °F 86% 29.79 in 10.0 mi Calm Calm - N/A   Clear
8:55 AM 19.4 °F 14.3 °F 14.0 °F 80% 29.79 in 10.0 mi West 3.5 mph - N/A   Clear
9:15 AM 21.2 °F 13.6 °F 15.8 °F 80% 29.80 in 10.0 mi West 5.8 mph - N/A   Clear
9:35 AM 21.2 °F 14.9 °F 14.0 °F 74% 29.80 in 10.0 mi WNW 4.6 mph - N/A   Clear
9:55 AM 23.0 °F 13.9 °F 15.8 °F 74% 29.81 in 10.0 mi WNW 8.1 mph - N/A   Clear
10:15 AM 23.0 °F 12.4 °F 14.0 °F 68% 29.81 in 10.0 mi WNW 10.4 mph 19.6 mph N/A   Clear
10:35 AM 23.0 °F 11.7 °F 12.2 °F 63% 29.80 in 10.0 mi West 11.5 mph 17.3 mph N/A   Clear
10:55 AM 24.8 °F 17.9 °F 14.0 °F 64% 29.79 in 10.0 mi WNW 5.8 mph - N/A   Clear
11:15 AM 26.6 °F 16.8 °F 14.0 °F 59% 29.79 in 10.0 mi West 10.4 mph 17.3 mph N/A   Clear
11:35 AM 24.8 °F 12.9 °F 10.4 °F 54% 29.79 in 10.0 mi West 13.8 mph 20.7 mph N/A   Clear
11:55 AM 24.8 °F 14.6 °F 10.4 °F 54% 29.79 in 10.0 mi WNW 10.4 mph 18.4 mph N/A   Clear
12:15 PM 24.8 °F 14.0 °F 10.4 °F 54% 29.80 in 10.0 mi WNW 11.5 mph 20.7 mph N/A   Clear
12:35 PM 24.8 °F 13.4 °F 6.8 °F 46% 29.79 in 10.0 mi West 12.7 mph 20.7 mph N/A   Clear
12:55 PM 24.8 °F 12.9 °F 6.8 °F 46% 29.79 in 10.0 mi West 13.8 mph 23.0 mph N/A   Clear
1:15 PM 24.8 °F 13.4 °F 6.8 °F 46% 29.80 in 10.0 mi West 12.7 mph 19.6 mph N/A   Clear
1:35 PM 24.8 °F 12.9 °F 3.2 °F 40% 29.80 in 10.0 mi West 13.8 mph 27.6 mph N/A   Clear
1:55 PM 23.0 °F 10.6 °F 6.8 °F 50% 29.81 in 10.0 mi West 13.8 mph 26.5 mph N/A   Clear
2:15 PM 23.0 °F 13.9 °F 5.0 °F 46% 29.83 in 10.0 mi West 8.1 mph 19.6 mph N/A   Clear
2:35 PM 23.0 °F 13.1 °F 6.8 °F 50% 29.84 in 10.0 mi West 9.2 mph - N/A   Clear
2:55 PM 21.2 °F 8.3 °F 1.4 °F 42% 29.85 in 10.0 mi West 13.8 mph 28.8 mph N/A   Clear
3:15 PM 19.4 °F 7.2 °F 1.4 °F 46% 29.87 in 10.0 mi WNW 11.5 mph 24.2 mph N/A   Clear
3:35 PM 19.4 °F 6.0 °F 1.4 °F 46% 29.89 in 10.0 mi West 13.8 mph 24.2 mph N/A   Clear
3:55 PM 17.6 °F 7.3 °F 1.4 °F 49% 29.90 in 10.0 mi West 8.1 mph 23.0 mph N/A   Clear
4:15 PM 17.6 °F 6.4 °F 1.4 °F 49% 29.92 in 10.0 mi WNW 9.2 mph - N/A   Clear
4:35 PM 17.6 °F 7.3 °F 1.4 °F 49% 29.93 in 10.0 mi WNW 8.1 mph 16.1 mph N/A   Clear
4:55 PM 15.8 °F 5.1 °F 1.4 °F 53% 29.95 in 10.0 mi NW 8.1 mph 17.3 mph N/A   Clear
5:15 PM 14.0 °F 0.5 °F 3.2 °F 62% 29.97 in 10.0 mi WNW 11.5 mph - N/A   Clear
5:35 PM 14.0 °F 2.9 °F -0.4 °F 53% 29.97 in 10.0 mi WNW 8.1 mph 16.1 mph N/A   Clear
5:55 PM 12.2 °F -1.0 °F 1.4 °F 62% 30.00 in 10.0 mi WNW 10.4 mph 16.1 mph N/A   Clear
6:15 PM 12.2 °F 4.3 °F -0.4 °F 57% 30.01 in 10.0 mi NNW 4.6 mph - N/A   Clear
6:35 PM 10.4 °F -1.5 °F 1.4 °F 67% 30.02 in 10.0 mi NW 8.1 mph - N/A   Clear
6:55 PM 10.4 °F 0.8 °F -0.4 °F 62% 30.04 in 10.0 mi WNW 5.8 mph - N/A   Clear
7:15 PM 10.4 °F -1.5 °F -2.2 °F 57% 30.05 in 10.0 mi WNW 8.1 mph - N/A   Clear
7:35 PM 10.4 °F -0.4 °F -2.2 °F 57% 30.06 in 10.0 mi NW 6.9 mph - N/A   Clear
7:55 PM 8.6 °F -1.3 °F -0.4 °F 67% 30.07 in 10.0 mi WNW 5.8 mph - N/A   Clear
8:15 PM 8.6 °F 0.1 °F -0.4 °F 67% 30.08 in 10.0 mi NW 4.6 mph - N/A   Clear
8:35 PM 6.8 °F -0.1 °F -2.2 °F 67% 30.08 in 10.0 mi NW 3.5 mph - N/A   Clear
8:55 PM 6.8 °F -4.8 °F -2.2 °F 67% 30.10 in 10.0 mi WNW 6.9 mph - N/A   Clear
9:15 PM 6.8 °F -2.0 °F -2.2 °F 67% 30.11 in 10.0 mi NNW 4.6 mph - N/A   Clear
9:35 PM 5.0 °F -5.6 °F -2.2 °F 72% 30.11 in 10.0 mi NW 5.8 mph - N/A   Clear
9:55 PM 5.0 °F -2.1 °F -4.0 °F 66% 30.13 in 10.0 mi WNW 3.5 mph - N/A   Clear
10:15 PM 3.2 °F -6.2 °F -5.8 °F 66% 30.14 in 10.0 mi NW 4.6 mph - N/A   Clear
10:35 PM 3.2 °F -7.8 °F -4.0 °F 72% 30.14 in 10.0 mi NNW 5.8 mph - N/A   Clear
10:55 PM 3.2 °F -7.8 °F -5.8 °F 66% 30.16 in 10.0 mi WNW 5.8 mph - N/A   Clear
11:15 PM 3.2 °F -10.3 °F -5.8 °F 66% 30.16 in 10.0 mi WNW 8.1 mph - N/A   Clear
11:35 PM 3.2 °F -7.8 °F -5.8 °F 66% 30.18 in 10.0 mi WNW 5.8 mph - N/A   Clear
11:55 PM 1.4 °F -14.5 °F -5.8 °F 72% 30.16 in 10.0 mi NNW 10.4 mph - N/A   Clear